This is the latest recevied weather packets stored in our database for station/object IZ5MMH-4. If no packets are shown the sender has not sent any weather packets the latest 10 day(s).
| Time | Temp. | Humidity | Pressure | Rain* | Wind** | Luminosity | Snow |
|---|---|---|---|---|---|---|---|
| 1787388264 | 28.89° C | 59% | 1015.3 hPa | - | - | - | - |
| 1787387664 | 28.89° C | 59% | 1015.2 hPa | - | - | - | - |
| 1787387064 | 28.89° C | 61% | 1014.9 hPa | - | - | - | - |
| 1787386464 | 28.33° C | 51% | 1015 hPa | - | - | - | - |
| 1787385863 | 28.33° C | 56% | 1014.9 hPa | - | - | - | - |
| 1787385264 | 28.33° C | 58% | 1014.8 hPa | - | - | - | - |
| 1787384664 | 28.33° C | 58% | 1014.8 hPa | - | - | - | - |
| 1787384064 | 27.78° C | 53% | 1014.9 hPa | - | - | - | - |
| 1787383464 | 27.78° C | 56% | 1014.7 hPa | - | - | - | - |
| 1787382864 | 27.78° C | 63% | 1014.7 hPa | - | - | - | - |
| 1787382264 | 27.78° C | 63% | 1014.7 hPa | - | - | - | - |
| 1787381664 | 27.22° C | 67% | 1014.6 hPa | - | - | - | - |
| 1787381063 | 27.22° C | 69% | 1014.7 hPa | - | - | - | - |
| 1787380464 | 27.22° C | 70% | 1014.7 hPa | - | - | - | - |
| 1787379864 | 26.67° C | 71% | 1014.6 hPa | - | - | - | - |
| 1787379264 | 26.67° C | 71% | 1014.5 hPa | - | - | - | - |
| 1787378664 | 26.67° C | 72% | 1014.4 hPa | - | - | - | - |
| 1787378064 | 26.67° C | 71% | 1014.3 hPa | - | - | - | - |
| 1787377464 | 26.67° C | 71% | 1014.2 hPa | - | - | - | - |
| 1787376863 | 26.11° C | 71% | 1014.2 hPa | - | - | - | - |
| 1787376264 | 26.11° C | 71% | 1014.1 hPa | - | - | - | - |
| 1787375664 | 26.11° C | 70% | 1014.1 hPa | - | - | - | - |
| 1787375064 | 26.67° C | 69% | 1014.1 hPa | - | - | - | - |
| 1787374464 | 26.67° C | 68% | 1014.1 hPa | - | - | - | - |
| 1787373864 | 26.67° C | 68% | 1013.9 hPa | - | - | - | - |
* Rain since midnight (hover to see other rain measurements)
** Current wind speed in m/s (hover to see current wind gust speed)